Location: Krakow
(50.0830°N, 19.9170°E)
Time: 11:34:03
(UTC+02:00)

Tiros 1 - Pass Details

Date: 11 February 2023
Orbit: 627 x 662 km, 48.4° (Epoch: 26 March)

Event Time Altitude Azimuth Distance (km) Brightness Sun altitude
Rises 20:54:48 0° 219° (SW) 2,902 - -38.7°
Reaches altitude 10° 20:57:20 10° 209° (SSW) 1,996 - -39.1°
Maximum altitude 21:01:17 29° 149° (SSE) 1,151 - -39.6°
Drops below altitude 10° 21:05:15 10° 90° (E) 2,005 - -40.1°
Sets 21:07:48 0° 79° (E) 2,917 - -40.5°
